sat.trackr.live / text

‹ back to catalog

STARLINK-3699

NORAD 51966 · 2022-025L

PAYLOAD ACTIVE UNKNOWN

§ Identity

Operator
Country
US
Launch date
2022-03-09
Launch site
AFETR
Launch vehicle
Mass (kg)
RCS (m²)

Purposes: comms

External: N2YO · Heavens-Above · Gunter

§ Orbital elements

Epoch: 2026-09-20T03:20:27.877056Z

Period
94.01 min
Inclination
53.1597°
Eccentricity
0.0001569
Mean motion
15.31700102 rev/d
Perigee alt
469.7 km
Apogee alt
471.8 km
Semi-major
6,848.9 km
B*
-6.3657e-6
RAAN
212.0535°
Arg perigee
86.7925°
Mean anomaly
273.3256°
Rev number
25,062

§ Raw data

STARLINK-36991 51966U 22025L   26263.13921154 -.00000563  00000+0 -63657-5 0  99902 51966  53.1597 212.0535 0001569  86.7925 273.3256 15.31700102250628

JSON: /api/v1/satellites/51966 · /tle

For live sub-satellite position, see the globe view (requires WebGL).

§ Visibility from observer

Set your observer location to see the next 7 days of passes ≥ 10°. The values pass through the URL so the page stays shareable.

No JS? Fill the form by hand. The geolocation button needs JavaScript.